Menomonie, WI

8:52 PM CST on November 22, 2017 (GMT -0600)
Menomonie

Weather History for KLUM - February, 2014

Change the Weather History Date:

Monday, February 3, 2014

  Actual Average (KEAU) Record (KEAU)
Temperature  
Mean Temperature 2 °F -  
Max Temperature 17 °F 21 °F 47 °F (1991)
Min Temperature -13 °F 2 °F -34 °F (1912)
Degree Days  
Heating Degree Days 63    
Moisture  
Dew Point -6 °F    
Average Humidity 75    
Maximum Humidity 87    
Minimum Humidity 60    
Precipitation  
Precipitation 0.00 in - - ()
Sea Level Pressure  
Sea Level Pressure 30.24 in    
Wind  
Wind Speed 3 mph (South)    
Max Wind Speed 7 mph    
Max Gust Speed -    
Visibility 9 miles    
Events      
Averages and records for this station are not official NWS values.
T = Trace of Precipitation, MM = Missing Value Source: NWS Daily Summary

Daily Weather History Graph

Daily Weather History Graph

Search for Another Location

Airport or City:

Trip Planner

Search our weather history database for the weather conditions in past years. The results will help you decide how hot, cold, wet, or windy it might be!

Date:

Astronomy

Feb. 03, 2014 Rise Set
Actual Time 7:24 AM CST 5:18 PM CST
Civil Twilight 6:53 AM CST 5:49 PM CST
Nautical Twilight 6:18 AM CST 6:24 PM CST
Astronomical Twilight 5:44 AM CST 6:58 PM CST
Moon 9:13 AM CST (2/3) 10:24 PM CST (2/3)
Length of Visible Light 10h 56m
Length of Day
9h 54m
Waxing Crescent, 20% of the Moon is Illuminated
Feb 3
Waxing Crescent
Feb 6
First Quarter
Feb 14
Full
Feb 22
Last Quarter
Mar 1
New

Hourly Weather History & Observations

Time (CST) Temp. Windchill Dew Point Humidity Pressure Visibility Wind Dir Wind Speed Gust Speed Precip Events Conditions
12:15 AM -12.8 °F -22.5 °F -18.9 °F 74% 30.24 in 10.0 mi East 3.5 mph - N/A   Clear
12:35 AM -13.0 °F - -18.4 °F 77% 30.24 in 10.0 mi Calm Calm - N/A   Clear
12:55 AM -12.8 °F - -18.8 °F 75% 30.23 in 10.0 mi Calm Calm - N/A   Clear
1:15 AM -13.2 °F - -19.1 °F 75% 30.24 in 10.0 mi Calm Calm - N/A   Clear
1:35 AM -10.3 °F -21.9 °F -15.5 °F 78% 30.24 in 10.0 mi ESE 4.6 mph - N/A   Clear
1:55 AM -13.2 °F -27.2 °F -18.8 °F 76% 30.23 in 10.0 mi East 5.8 mph - N/A   Clear
2:15 AM -13.5 °F -23.3 °F -19.1 °F 76% 30.23 in 10.0 mi East 3.5 mph - N/A   Clear
2:35 AM -12.8 °F -22.5 °F -18.4 °F 76% 30.23 in 10.0 mi ESE 3.5 mph - N/A   Clear
2:55 AM -12.1 °F -21.7 °F -17.9 °F 76% 30.23 in 10.0 mi ESE 3.5 mph - N/A   Clear
3:15 AM -10.3 °F -19.6 °F -15.9 °F 76% 30.23 in 10.0 mi ESE 3.5 mph - N/A   Clear
3:35 AM -11.2 °F -20.6 °F -16.8 °F 76% 30.22 in 10.0 mi ESE 3.5 mph - N/A   Clear
3:55 AM -13.7 °F - -19.7 °F 75% 30.22 in 10.0 mi Calm Calm - N/A   Clear
4:15 AM -12.1 °F - -17.7 °F 76% 30.21 in 10.0 mi Calm Calm - N/A   Clear
4:35 AM -12.1 °F -21.7 °F -17.7 °F 76% 30.21 in 10.0 mi ESE 3.5 mph - N/A   Clear
4:55 AM -10.8 °F -22.5 °F -16.2 °F 77% 30.21 in 10.0 mi ESE 4.6 mph - N/A   Clear
5:15 AM -9.4 °F -18.6 °F -15.2 °F 76% 30.20 in 10.0 mi ESE 3.5 mph - N/A   Clear
5:35 AM -10.8 °F -20.2 °F -16.4 °F 76% 30.20 in 10.0 mi ESE 3.5 mph - N/A   Clear
5:55 AM -11.7 °F -21.3 °F -17.7 °F 75% 30.20 in 7.0 mi ESE 3.5 mph - N/A   Clear
6:15 AM -9.4 °F -22.7 °F -14.6 °F 78% 30.20 in 7.0 mi ESE 5.8 mph - N/A   Clear
6:35 AM -9.4 °F -18.6 °F -14.8 °F 77% 30.20 in 7.0 mi ESE 3.5 mph - N/A   Clear
6:55 AM -10.3 °F - -15.9 °F 76% 30.20 in 7.0 mi Calm Calm - N/A   Clear
7:15 AM -11.6 °F - -17.3 °F 76% 30.21 in 7.0 mi Calm Calm - N/A   Clear
7:35 AM -11.6 °F - -17.1 °F 76% 30.21 in 7.0 mi Calm Calm - N/A   Clear
7:55 AM -11.6 °F - -17.5 °F 75% 30.21 in 7.0 mi Calm Calm - N/A   Clear
8:15 AM -10.5 °F - -16.1 °F 76% 30.21 in 4.0 mi Calm Calm - N/A   Haze
8:35 AM -10.1 °F - -15.5 °F 77% 30.21 in 5.0 mi Calm Calm - N/A   Haze
8:55 AM -8.1 °F -17.1 °F -13.4 °F 78% 30.21 in 7.0 mi East 3.5 mph - N/A   Clear
9:15 AM -5.6 °F -14.3 °F -10.5 °F 79% 30.22 in 7.0 mi East 3.5 mph - N/A   Clear
9:35 AM -4.4 °F - -8.7 °F 82% 30.23 in 7.0 mi Calm Calm - N/A   Clear
9:55 AM -4.0 °F - -8.5 °F 81% 30.23 in 7.0 mi Calm Calm - N/A   Clear
10:15 AM -1.3 °F - -5.6 °F 82% 30.23 in 1.0 mi Calm Calm - N/A   Haze
10:35 AM 0.1 °F - -4.0 °F 83% 30.23 in 7.0 mi Calm Calm - N/A   Clear
10:55 AM 3.6 °F - -0.4 °F 84% 30.23 in 7.0 mi Calm Calm - N/A   Clear
11:15 AM 7.7 °F - 4.5 °F 87% 30.23 in 10.0 mi Calm Calm - N/A   Clear
11:35 AM 8.8 °F 0.4 °F 5.0 °F 85% 30.22 in 10.0 mi SSE 4.6 mph - N/A   Clear
11:55 AM 9.5 °F 1.2 °F 4.8 °F 81% 30.22 in 10.0 mi SSE 4.6 mph - N/A   Clear
12:15 PM 10.6 °F 4.3 °F 3.6 °F 73% 30.21 in 10.0 mi SSW 3.5 mph - N/A   Clear
12:35 PM 12.2 °F 6.1 °F 3.0 °F 67% 30.22 in 10.0 mi SSW 3.5 mph - N/A   Clear
12:55 PM 13.5 °F 4.4 °F 3.0 °F 63% 30.21 in 10.0 mi South 5.8 mph - N/A   Clear
1:15 PM 14.7 °F 7.3 °F 3.6 °F 61% 30.20 in 10.0 mi SSW 4.6 mph - N/A   Clear
1:35 PM 15.3 °F 5.4 °F 3.9 °F 61% 30.20 in 10.0 mi SSW 6.9 mph - N/A   Clear
1:55 PM 15.6 °F 8.3 °F 4.3 °F 61% 30.20 in 10.0 mi South 4.6 mph - N/A   Clear
2:15 PM 16.0 °F 6.3 °F 4.5 °F 60% 30.20 in 10.0 mi SW 6.9 mph - N/A   Clear
2:35 PM 16.3 °F 7.8 °F 4.8 °F 61% 30.21 in 10.0 mi WSW 5.8 mph - N/A   Clear
2:55 PM 17.6 °F 8.2 °F 5.9 °F 60% 30.21 in 10.0 mi WSW 6.9 mph - N/A   Clear
3:15 PM 17.1 °F 7.6 °F 5.5 °F 61% 30.23 in 10.0 mi WSW 6.9 mph - N/A   Clear
3:35 PM 16.7 °F 9.6 °F 5.4 °F 61% 30.23 in 10.0 mi WSW 4.6 mph - N/A   Clear
3:55 PM 17.1 °F 8.7 °F 5.4 °F 60% 30.23 in 10.0 mi WSW 5.8 mph - N/A   Clear
4:15 PM 15.6 °F 5.9 °F 5.9 °F 66% 30.23 in 10.0 mi WNW 6.9 mph - N/A   Clear
4:35 PM 14.9 °F 5.0 °F 5.5 °F 66% 30.23 in 10.0 mi WNW 6.9 mph - N/A   Clear
4:55 PM 14.5 °F 4.6 °F 5.0 °F 66% 30.24 in 10.0 mi WNW 6.9 mph - N/A   Clear
5:15 PM 14.4 °F 8.6 °F 5.0 °F 66% 30.25 in 10.0 mi West 3.5 mph - N/A   Clear
5:35 PM 14.0 °F - 5.0 °F 67% 30.26 in 10.0 mi Calm Calm - N/A   Clear
5:55 PM 13.5 °F 7.5 °F 4.6 °F 68% 30.27 in 10.0 mi West 3.5 mph - N/A   Clear
6:15 PM 13.6 °F - 4.6 °F 67% 30.27 in 10.0 mi Calm Calm - N/A   Mostly Cloudy
6:35 PM 12.6 °F - 4.8 °F 71% 30.27 in 10.0 mi Calm Calm - N/A   Mostly Cloudy
6:55 PM 12.9 °F - 4.5 °F 69% 30.27 in 10.0 mi Calm Calm - N/A   Mostly Cloudy
7:15 PM 11.1 °F - 3.9 °F 73% 30.28 in 10.0 mi Calm Calm - N/A   Scattered Clouds
7:35 PM 9.9 °F - 3.6 °F 76% 30.28 in 10.0 mi Calm Calm - N/A   Clear
7:55 PM 9.3 °F - 3.2 °F 76% 30.28 in 10.0 mi Calm Calm - N/A   Clear
8:15 PM 7.9 °F - 3.2 °F 81% 30.28 in 10.0 mi Calm Calm - N/A   Clear
8:35 PM 7.5 °F - 2.7 °F 81% 30.28 in 10.0 mi Calm Calm - N/A   Clear
8:55 PM 2.1 °F - -2.6 °F 81% 30.29 in 10.0 mi Calm Calm - N/A   Clear
9:15 PM 3.6 °F -3.8 °F -0.2 °F 84% 30.29 in 7.0 mi West 3.5 mph - N/A   Scattered Clouds
9:35 PM 3.2 °F - -0.6 °F 84% 30.29 in 7.0 mi Calm Calm - N/A   Scattered Clouds
9:55 PM 1.4 °F - -2.7 °F 83% 30.30 in 7.0 mi Calm Calm - N/A   Scattered Clouds
10:15 PM 0.9 °F - -2.6 °F 86% 30.31 in 7.0 mi Calm Calm - N/A   Clear
10:35 PM -0.4 °F -8.3 °F -4.0 °F 85% 30.31 in 7.0 mi WSW 3.5 mph - N/A   Clear
10:55 PM 0.3 °F - -3.8 °F 83% 30.32 in 7.0 mi Calm Calm - N/A   Clear
11:15 PM 0.3 °F -7.5 °F -3.5 °F 84% 30.32 in 7.0 mi WNW 3.5 mph - N/A   Clear
11:35 PM -0.8 °F - -5.3 °F 81% 30.33 in 7.0 mi Calm Calm - N/A   Clear
11:55 PM -1.8 °F -9.9 °F -6.2 °F 82% 30.35 in 7.0 mi WSW 3.5 mph - N/A   Clear